QPF
0.00 0.00 0.00 0.00 0.00 0.00 0.00 0.00 0.00 0.00 0.00 0.00 0.01 0.02 0.02 0.01 0.01 0.01 0.01 0.02 0.02 0.02 0.02 0.01 0.01 0.02 0.04 0.04 0.04 0.04 0.05 0.08 0.09 0.10 0.12 0.13 0.12 0.10 0.09 0.07 0.06 0.06 0.05 0.04
0.00 0.00 0.00 0.00 0.00 0.00 0.00 0.00 0.00 0.00 0.00 0.00 0.00 0.01 0.01 0.01 0.01 0.01 0.01 0.03 0.03 0.02 0.01 0.01 0.01 0.02 0.03 0.03 0.04 0.07 0.09 0.12 0.12 0.12 0.12 0.11 0.09 0.09 0.08 0.10 0.10 0.08 0.06 0.05
0.00 0.00 0.00 0.00 0.00 0.00 0.00 0.00 0.00 0.00 0.00 0.00 0.00 0.01 0.01 0.02 0.02 0.01 0.01 0.03 0.03 0.02 0.01 0.01 0.01 0.02 0.04 0.03 0.06 0.11 0.14 0.16 0.17 0.17 0.13 0.09 0.08 0.08 0.09 0.09 0.08 0.07 0.05 0.04
0.00 0.00 0.00 0.00 0.00 0.00 0.00 0.00 0.00 0.00 0.00 0.00 0.01 0.01 0.01 0.02 0.03 0.02 0.03 0.03 0.02 0.02 0.01 0.01 0.01 0.03 0.03 0.04 0.08 0.11 0.17 0.19 0.19 0.16 0.11 0.11 0.12 0.11 0.08 0.06 0.05 0.05 0.05 0.05
0.00 0.00 0.00 0.00 0.00 0.00 0.00 0.00 0.01 0.00 0.00 0.00 0.00 0.01 0.01 0.01 0.02 0.02 0.03 0.03 0.02 0.02 0.01 0.02 0.02 0.02 0.03 0.05 0.07 0.09 0.13 0.15 0.15 0.13 0.13 0.14 0.13 0.09 0.06 0.05 0.06 0.06 0.06 0.06
0.00 0.00 0.00 0.00 0.00 0.00 0.00 0.00 0.01 0.00 0.00 0.00 0.00 0.00 0.01 0.01 0.01 0.01 0.01 0.01 0.02 0.03 0.03 0.02 0.02 0.02 0.03 0.06 0.08 0.09 0.11 0.12 0.09 0.06 0.07 0.09 0.07 0.04 0.05 0.07 0.08 0.07 0.06 0.06
0.00 0.00 0.00 0.00 0.00 0.00 0.01 0.00 0.00 0.00 0.00 0.00 0.00 0.01 0.01 0.01 0.01 0.01 0.01 0.01 0.02 0.05 0.05 0.04 0.03 0.04 0.06 0.07 0.05 0.05 0.05 0.04 0.03 0.03 0.03 0.04 0.03 0.02 0.04 0.05 0.04 0.03 0.03 0.03
0.00 0.00 0.00 0.00 0.00 0.01 0.01 0.00 0.00 0.00 0.00 0.00 0.00 0.01 0.01 0.01 0.01 0.01 0.01 0.01 0.01 0.02 0.03 0.03 0.05 0.05 0.05 0.03 0.02 0.03 0.03 0.03 0.03 0.03 0.03 0.02 0.02 0.01 0.02 0.01 0.01 0.01 0.01 0.02
0.00 0.00 0.00 0.00 0.00 0.00 0.01 0.00 0.00 0.00 0.00 0.00 0.01 0.01 0.01 0.01 0.01 0.01 0.01 0.01 0.01 0.02 0.02 0.03 0.02 0.02 0.02 0.02 0.03 0.03 0.04 0.04 0.04 0.04 0.03 0.02 0.01 0.01 0.01 0.01 0.01 0.01 0.01 0.03
0.00 0.00 0.00 0.00 0.00 0.00 0.00 0.00 0.00 0.00 0.00 0.00 0.00 0.01 0.01 0.01 0.01 0.01 0.01 0.01 0.02 0.03 0.03 0.02 0.02 0.01 0.02 0.02 0.04 0.06 0.07 0.06 0.05 0.05 0.05 0.04 0.02 0.02 0.02 0.02 0.02 0.02 0.02 0.02
0.00 0.00 0.00 0.00 0.00 0.00 0.00 0.00 0.00 0.00 0.00 0.00 0.00 0.01 0.01 0.02 0.01 0.01 0.01 0.01 0.02 0.03 0.03 0.02 0.02 0.02 0.02 0.02 0.02 0.03 0.05 0.08 0.09 0.07 0.05 0.05 0.03 0.02 0.02 0.02 0.01 0.02 0.02 0.02
0.00 0.00 0.00 0.00 0.00 0.00 0.00 0.00 0.00 0.00 0.00 0.00 0.00 0.01 0.01 0.02 0.02 0.02 0.01 0.02 0.02 0.02 0.02 0.02 0.01 0.01 0.02 0.02 0.02 0.03 0.04 0.06 0.06 0.06 0.05 0.03 0.03 0.02 0.02 0.02 0.02 0.03 0.02 0.02
0.00 0.00 0.00 0.00 0.00 0.00 0.00 0.00 0.00 0.00 0.00 0.00 0.01 0.01 0.01 0.01 0.02 0.02 0.01 0.02 0.02 0.02 0.02 0.02 0.01 0.02 0.03 0.06 0.07 0.05 0.05 0.05 0.04 0.03 0.03 0.02 0.02 0.03 0.04 0.03 0.03 0.03 0.03 0.02
0.00 0.00 0.00 0.00 0.00 0.00 0.00 0.00 0.00 0.00 0.00 0.00 0.01 0.01 0.01 0.01 0.01 0.02 0.01 0.01 0.02 0.01 0.01 0.01 0.02 0.02 0.05 0.12 0.12 0.05 0.05 0.04 0.03 0.03 0.04 0.04 0.03 0.04 0.05 0.05 0.04 0.03 0.03 0.03
0.00 0.00 0.00 0.00 0.00 0.01 0.01 0.01 0.00 0.00 0.00 0.01 0.00 0.01 0.01 0.01 0.01 0.01 0.01 0.01 0.01 0.01 0.01 0.02 0.02 0.03 0.04 0.05 0.05 0.03 0.04 0.03 0.02 0.02 0.02 0.02 0.02 0.02 0.03 0.04 0.04 0.04 0.04 0.04
0.00 0.01 0.00 0.01 0.01 0.01 0.01 0.01 0.01 0.01 0.01 0.00 0.00 0.00 0.00 0.00 0.00 0.01 0.01 0.01 0.01 0.01 0.01 0.02 0.03 0.02 0.02 0.03 0.02 0.01 0.02 0.02 0.01 0.01 0.01 0.01 0.02 0.02 0.02 0.02 0.03 0.04 0.04 0.04
0.01 0.01 0.01 0.01 0.01 0.01 0.01 0.01 0.01 0.01 0.01 0.00 0.00 0.00 0.01 0.01 0.01 0.01 0.02 0.01 0.01 0.01 0.02 0.02 0.02 0.02 0.01 0.01 0.01 0.01 0.01 0.01 0.01 0.01 0.02 0.02 0.02 0.02 0.01 0.02 0.02 0.03 0.02 0.02
0.01 0.01 0.01 0.01 0.01 0.01 0.02 0.01 0.01 0.02 0.01 0.01 0.01 0.01 0.02 0.03 0.03 0.02 0.02 0.02 0.02 0.01 0.02 0.02 0.01 0.01 0.01 0.01 0.01 0.01 0.01 0.01 0.02 0.02 0.02 0.02 0.01 0.01 0.01 0.01 0.01 0.00 0.01 0.01
0.01 0.00 0.01 0.00 0.01 0.01 0.01 0.02 0.02 0.02 0.03 0.03 0.02 0.02 0.03 0.05 0.05 0.03 0.03 0.03 0.02 0.01 0.02 0.03 0.01 0.01 0.01 0.00 0.00 0.01 0.01 0.01 0.01 0.02 0.02 0.02 0.02 0.01 0.00 0.00 0.00 0.01 0.01 0.01
0.01 0.01 0.00 0.00 0.01 0.02 0.02 0.01 0.01 0.02 0.02 0.03 0.03 0.02 0.02 0.03 0.03 0.03 0.02 0.02 0.02 0.01 0.01 0.02 0.02 0.01 0.01 0.00 0.00 0.00 0.01 0.01 0.00 0.01 0.01 0.01 0.01 0.01 0.00 0.00 0.00 0.01 0.01 0.02
0.01 0.01 0.01 0.01 0.01 0.02 0.02 0.01 0.01 0.01 0.02 0.02 0.02 0.02 0.02 0.03 0.03 0.03 0.02 0.02 0.01 0.01 0.01 0.01 0.01 0.01 0.01 0.01 0.00 0.00 0.00 0.00 0.00 0.00 0.00 0.00 0.01 0.01 0.01 0.00 0.01 0.01 0.01 0.01
0.01 0.02 0.02 0.01 0.02 0.02 0.01 0.01 0.01 0.01 0.01 0.01 0.02 0.02 0.02 0.02 0.02 0.02 0.02 0.02 0.02 0.01 0.00 0.01 0.01 0.01 0.01 0.01 0.00 0.00 0.00 0.00 0.00 0.00 0.00 0.00 0.00 0.00 0.00 0.00 0.01 0.01 0.01 0.01
0.02 0.01 0.02 0.02 0.02 0.02 0.01 0.01 0.01 0.01 0.01 0.01 0.01 0.01 0.01 0.01 0.01 0.01 0.01 0.01 0.01 0.01 0.00 0.00 0.00 0.01 0.00 0.00 0.00 0.00 0.00 0.00 0.00 0.00 0.00 0.00 0.00 0.00 0.00 0.00 0.00 0.00 0.01 0.01
0.04 0.02 0.02 0.03 0.03 0.02 0.01 0.01 0.01 0.01 0.01 0.01 0.00 0.00 0.00 0.00 0.00 0.00 0.00 0.00 0.00 0.00 0.00 0.00 0.00 0.00 0.00 0.00 0.00 0.00 0.00 0.00 0.00 0.00 0.00 0.00 0.00 0.00 0.00 0.00 0.00 0.00 0.00 0.01
0.03 0.03 0.02 0.02 0.02 0.01 0.01 0.01 0.01 0.00 0.00 0.00 0.00 0.00 0.00 0.00 0.00 0.00 0.00 0.00 0.00 0.00 0.00 0.00 0.00 0.00 0.00 0.00 0.00 0.00 0.00 0.00 0.00 0.00 0.00 0.00 0.00 0.00 0.00 0.00 0.00 0.00 0.00 0.00
0.01 0.01 0.02 0.01 0.01 0.01 0.01 0.01 0.01 0.00 0.00 0.00 0.00 0.00 0.00 0.00 0.00 0.00 0.00 0.00 0.00 0.00 0.00 0.00 0.00 0.00 0.00 0.00 0.00 0.00 0.00 0.00 0.00 0.00 0.00 0.00 0.00 0.00 0.00 0.01 0.00 0.00 0.00 0.00
MSLP
1010.29 1011.04 1011.70 1012.28 1012.81 1013.30 1013.79 1014.30 1014.81 1015.31 1015.75 1016.10 1016.34 1016.45 1016.43 1016.31 1016.13 1015.92 1015.71 1015.52 1015.35 1015.20 1015.05 1014.86 1014.64 1014.37 1014.08 1013.78 1013.50 1013.29 1013.16 1013.14 1013.20 1013.35 1013.54 1013.76 1013.99 1014.20 1014.40 1014.60 1014.80 1015.03 1015.29 1015.58
1010.74 1011.34 1011.85 1012.30 1012.75 1013.25 1013.80 1014.43 1015.09 1015.73 1016.30 1016.73 1016.98 1017.05 1016.95 1016.73 1016.45 1016.16 1015.93 1015.76 1015.66 1015.61 1015.57 1015.49 1015.35 1015.13 1014.87 1014.57 1014.30 1014.09 1013.99 1014.01 1014.14 1014.37 1014.65 1014.94 1015.21 1015.43 1015.60 1015.72 1015.82 1015.92 1016.04 1016.21
1011.05 1011.48 1011.82 1012.16 1012.55 1013.06 1013.70 1014.46 1015.29 1016.10 1016.80 1017.30 1017.57 1017.59 1017.39 1017.04 1016.63 1016.25 1015.96 1015.79 1015.74 1015.78 1015.85 1015.89 1015.85 1015.72 1015.51 1015.26 1015.01 1014.82 1014.74 1014.80 1014.99 1015.28 1015.62 1015.97 1016.27 1016.49 1016.62 1016.68 1016.69 1016.67 1016.68 1016.72
1011.25 1011.50 1011.70 1011.94 1012.30 1012.85 1013.60 1014.52 1015.52 1016.49 1017.32 1017.89 1018.15 1018.09 1017.77 1017.27 1016.71 1016.19 1015.82 1015.62 1015.60 1015.71 1015.88 1016.04 1016.13 1016.10 1015.98 1015.78 1015.56 1015.40 1015.34 1015.43 1015.64 1015.97 1016.36 1016.74 1017.06 1017.29 1017.40 1017.41 1017.35 1017.25 1017.17 1017.13
1011.38 1011.49 1011.57 1011.75 1012.12 1012.74 1013.62 1014.70 1015.87 1016.98 1017.90 1018.51 1018.74 1018.58 1018.11 1017.44 1016.70 1016.04 1015.55 1015.30 1015.28 1015.45 1015.72 1016.00 1016.21 1016.30 1016.26 1016.13 1015.96 1015.82 1015.77 1015.86 1016.09 1016.43 1016.83 1017.23 1017.57 1017.80 1017.91 1017.90 1017.80 1017.67 1017.54 1017.46
1011.51 1011.51 1011.53 1011.70 1012.11 1012.83 1013.83 1015.06 1016.37 1017.59 1018.56 1019.17 1019.33 1019.05 1018.42 1017.56 1016.64 1015.83 1015.23 1014.92 1014.89 1015.10 1015.46 1015.85 1016.17 1016.37 1016.43 1016.36 1016.23 1016.11 1016.06 1016.14 1016.35 1016.68 1017.07 1017.47 1017.82 1018.06 1018.18 1018.18 1018.10 1017.96 1017.83 1017.74
1011.66 1011.61 1011.62 1011.83 1012.31 1013.13 1014.26 1015.60 1017.00 1018.27 1019.25 1019.81 1019.87 1019.46 1018.67 1017.64 1016.56 1015.60 1014.91 1014.54 1014.51 1014.76 1015.19 1015.68 1016.11 1016.41 1016.55 1016.55 1016.46 1016.34 1016.29 1016.34 1016.52 1016.81 1017.18 1017.57 1017.92 1018.17 1018.31 1018.34 1018.29 1018.18 1018.08 1018.01
1011.83 1011.79 1011.84 1012.12 1012.70 1013.62 1014.83 1016.24 1017.67 1018.94 1019.87 1020.34 1020.30 1019.75 1018.82 1017.65 1016.45 1015.40 1014.64 1014.24 1014.22 1014.50 1014.99 1015.56 1016.08 1016.47 1016.68 1016.74 1016.68 1016.58 1016.51 1016.53 1016.67 1016.92 1017.26 1017.63 1017.96 1018.23 1018.39 1018.46 1018.44 1018.38 1018.32 1018.28
1011.99 1012.01 1012.15 1012.52 1013.20 1014.19 1015.45 1016.87 1018.27 1019.47 1020.31 1020.67 1020.50 1019.85 1018.82 1017.57 1016.31 1015.23 1014.46 1014.06 1014.06 1014.38 1014.92 1015.54 1016.12 1016.57 1016.84 1016.95 1016.92 1016.83 1016.76 1016.76 1016.87 1017.08 1017.38 1017.72 1018.05 1018.32 1018.50 1018.59 1018.61 1018.58 1018.55 1018.54
1012.09 1012.21 1012.47 1012.95 1013.70 1014.73 1015.99 1017.35 1018.65 1019.73 1020.44 1020.68 1020.42 1019.69 1018.62 1017.37 1016.14 1015.08 1014.35 1014.00 1014.03 1014.38 1014.94 1015.60 1016.21 1016.69 1017.00 1017.14 1017.15 1017.08 1017.02 1017.02 1017.11 1017.30 1017.57 1017.89 1018.20 1018.46 1018.64 1018.75 1018.79 1018.80 1018.79 1018.79
1012.09 1012.35 1012.73 1013.31 1014.11 1015.14 1016.33 1017.57 1018.73 1019.65 1020.21 1020.33 1020.00 1019.25 1018.22 1017.04 1015.90 1014.95 1014.30 1014.02 1014.09 1014.47 1015.03 1015.67 1016.28 1016.76 1017.09 1017.25 1017.29 1017.26 1017.23 1017.24 1017.35 1017.54 1017.80 1018.09 1018.38 1018.63 1018.81 1018.93 1018.98 1018.99 1018.99 1019.00
1012.00 1012.40 1012.91 1013.56 1014.38 1015.36 1016.44 1017.52 1018.48 1019.22 1019.62 1019.64 1019.26 1018.55 1017.61 1016.57 1015.59 1014.79 1014.27 1014.08 1014.19 1014.57 1015.10 1015.70 1016.26 1016.71 1017.02 1017.19 1017.26 1017.28 1017.29 1017.36 1017.49 1017.70 1017.97 1018.26 1018.54 1018.78 1018.95 1019.06 1019.11 1019.12 1019.12 1019.14
1011.86 1012.40 1013.01 1013.71 1014.52 1015.40 1016.32 1017.20 1017.95 1018.49 1018.73 1018.66 1018.28 1017.65 1016.84 1015.99 1015.20 1014.59 1014.22 1014.11 1014.26 1014.61 1015.09 1015.60 1016.08 1016.47 1016.75 1016.92 1017.02 1017.08 1017.16 1017.29 1017.48 1017.73 1018.02 1018.32 1018.60 1018.83 1018.99 1019.09 1019.14 1019.16 1019.17 1019.19
1011.74 1012.40 1013.08 1013.80 1014.56 1015.32 1016.06 1016.72 1017.24 1017.57 1017.67 1017.52 1017.16 1016.61 1015.97 1015.32 1014.75 1014.33 1014.10 1014.08 1014.25 1014.56 1014.95 1015.36 1015.73 1016.04 1016.27 1016.43 1016.56 1016.68 1016.83 1017.03 1017.28 1017.58 1017.90 1018.22 1018.50 1018.73 1018.89 1018.99 1019.05 1019.09 1019.11 1019.15
1011.71 1012.46 1013.19 1013.90 1014.57 1015.18 1015.72 1016.15 1016.45 1016.57 1016.53 1016.32 1015.98 1015.54 1015.06 1014.61 1014.24 1014.00 1013.91 1013.95 1014.13 1014.38 1014.68 1014.98 1015.24 1015.46 1015.64 1015.79 1015.94 1016.12 1016.34 1016.61 1016.92 1017.27 1017.62 1017.95 1018.25 1018.48 1018.65 1018.77 1018.85 1018.91 1018.97 1019.05
1011.82 1012.62 1013.36 1014.02 1014.59 1015.05 1015.39 1015.59 1015.66 1015.61 1015.43 1015.16 1014.83 1014.48 1014.15 1013.87 1013.68 1013.60 1013.61 1013.72 1013.89 1014.09 1014.31 1014.51 1014.68 1014.83 1014.97 1015.11 1015.29 1015.51 1015.79 1016.11 1016.48 1016.86 1017.23 1017.58 1017.87 1018.11 1018.29 1018.43 1018.55 1018.65 1018.76 1018.88
1012.08 1012.88 1013.59 1014.18 1014.63 1014.93 1015.07 1015.07 1014.94 1014.71 1014.42 1014.09 1013.76 1013.48 1013.26 1013.12 1013.07 1013.11 1013.21 1013.37 1013.54 1013.72 1013.88 1014.02 1014.13 1014.24 1014.36 1014.51 1014.72 1014.98 1015.29 1015.66 1016.05 1016.44 1016.82 1017.16 1017.45 1017.69 1017.88 1018.05 1018.20 1018.35 1018.51 1018.68
1012.41 1013.17 1013.81 1014.30 1014.62 1014.76 1014.73 1014.55 1014.25 1013.88 1013.48 1013.10 1012.77 1012.53 1012.38 1012.34 1012.40 1012.53 1012.71 1012.92 1013.11 1013.29 1013.44 1013.56 1013.66 1013.77 1013.91 1014.09 1014.32 1014.61 1014.96 1015.34 1015.73 1016.11 1016.46 1016.78 1017.05 1017.28 1017.48 1017.66 1017.85 1018.05 1018.26 1018.47
1012.70 1013.36 1013.90 1014.27 1014.46 1014.46 1014.29 1013.97 1013.54 1013.06 1012.59 1012.16 1011.82 1011.60 1011.51 1011.54 1011.67 1011.87 1012.12 1012.37 1012.61 1012.82 1013.00 1013.15 1013.29 1013.45 1013.63 1013.86 1014.13 1014.45 1014.81 1015.18 1015.55 1015.90 1016.21 1016.48 1016.72 1016.93 1017.13 1017.33 1017.54 1017.77 1018.01 1018.26
1012.83 1013.34 1013.74 1013.99 1014.05 1013.93 1013.65 1013.23 1012.72 1012.18 1011.67 1011.22 1010.89 1010.69 1010.63 1010.70 1010.88 1011.14 1011.44 1011.75 1012.04 1012.32 1012.56 1012.79 1013.01 1013.24 1013.49 1013.78 1014.10 1014.45 1014.81 1015.17 1015.50 1015.80 1016.05 1016.28 1016.47 1016.66 1016.84 1017.05 1017.28 1017.52 1017.78 1018.04
1012.67 1013.02 1013.26 1013.36 1013.31 1013.10 1012.75 1012.29 1011.75 1011.20 1010.69 1010.26 1009.94 1009.77 1009.73 1009.84 1010.06 1010.35 1010.70 1011.06 1011.42 1011.77 1012.10 1012.42 1012.74 1013.06 1013.40 1013.76 1014.13 1014.50 1014.86 1015.20 1015.49 1015.74 1015.95 1016.13 1016.28 1016.44 1016.62 1016.82 1017.05 1017.30 1017.56 1017.81
1012.19 1012.34 1012.42 1012.39 1012.24 1011.97 1011.59 1011.13 1010.62 1010.11 1009.65 1009.26 1008.99 1008.86 1008.86 1008.99 1009.23 1009.55 1009.93 1010.34 1010.76 1011.18 1011.59 1012.00 1012.42 1012.83 1013.25 1013.68 1014.09 1014.49 1014.85 1015.17 1015.43 1015.65 1015.82 1015.97 1016.10 1016.25 1016.42 1016.61 1016.84 1017.09 1017.34 1017.57
1011.41 1011.38 1011.29 1011.14 1010.92 1010.62 1010.25 1009.83 1009.39 1008.97 1008.59 1008.29 1008.09 1008.00 1008.04 1008.20 1008.45 1008.79 1009.18 1009.61 1010.07 1010.53 1011.01 1011.49 1011.98 1012.47 1012.95 1013.42 1013.88 1014.29 1014.66 1014.98 1015.23 1015.44 1015.60 1015.74 1015.87 1016.02 1016.20 1016.40 1016.62 1016.86 1017.10 1017.30
1010.45 1010.24 1010.01 1009.76 1009.48 1009.18 1008.85 1008.51 1008.17 1007.85 1007.59 1007.39 1007.28 1007.26 1007.34 1007.51 1007.77 1008.10 1008.49 1008.92 1009.38 1009.86 1010.36 1010.88 1011.40 1011.92 1012.45 1012.95 1013.43 1013.86 1014.24 1014.57 1014.84 1015.05 1015.24 1015.40 1015.56 1015.73 1015.92 1016.13 1016.36 1016.59 1016.81 1016.99
1009.45 1009.10 1008.76 1008.44 1008.13 1007.84 1007.56 1007.31 1007.08 1006.89 1006.74 1006.65 1006.63 1006.67 1006.79 1006.98 1007.24 1007.55 1007.90 1008.30 1008.73 1009.20 1009.68 1010.19 1010.71 1011.23 1011.76 1012.27 1012.75 1013.20 1013.60 1013.95 1014.24 1014.50 1014.73 1014.94 1015.14 1015.35 1015.57 1015.80 1016.03 1016.26 1016.46 1016.62
1008.58 1008.13 1007.72 1007.35 1007.03 1006.77 1006.55 1006.37 1006.25 1006.16 1006.12 1006.13 1006.18 1006.28 1006.43 1006.62 1006.86 1007.14 1007.45 1007.80 1008.18 1008.59 1009.02 1009.48 1009.96 1010.46 1010.95 1011.45 1011.92 1012.37 1012.79 1013.16 1013.50 1013.81 1014.10 1014.36 1014.62 1014.87 1015.13 1015.38 1015.61 1015.83 1016.01 1016.16
Thickness
5762 5750 5743 5749 5754 5756 5754 5749 5747 5755 5768 5763 5757 5758 5766 5775 5774 5772 5771 5772 5773 5774 5776 5776 5775 5773 5769 5765 5761 5758 5754 5751 5748 5745 5741 5737 5734 5733 5732 5731 5730 5729 5727 5726
5744 5742 5755 5759 5757 5753 5749 5744 5743 5750 5762 5759 5751 5752 5761 5767 5769 5771 5770 5769 5770 5769 5770 5770 5770 5768 5764 5760 5757 5754 5751 5747 5745 5743 5740 5736 5733 5729 5728 5726 5725 5724 5723 5722
5740 5749 5761 5755 5751 5746 5744 5742 5742 5743 5750 5752 5748 5741 5750 5760 5765 5766 5768 5767 5767 5767 5765 5764 5763 5762 5759 5756 5753 5752 5747 5744 5741 5739 5736 5732 5728 5725 5724 5722 5722 5721 5720 5719
5741 5752 5755 5750 5748 5746 5737 5752 5749 5744 5733 5724 5735 5716 5737 5747 5751 5756 5759 5761 5761 5762 5761 5759 5757 5756 5754 5752 5750 5747 5743 5740 5738 5736 5733 5728 5723 5720 5719 5718 5717 5717 5716 5714
5739 5749 5748 5744 5750 5751 5746 5754 5746 5740 5728 5718 5723 5714 5723 5739 5741 5748 5754 5757 5757 5757 5756 5754 5752 5751 5749 5747 5744 5741 5738 5735 5733 5731 5728 5724 5720 5718 5716 5715 5713 5712 5711 5710
5743 5754 5754 5753 5758 5756 5752 5742 5732 5720 5712 5701 5715 5710 5714 5728 5740 5747 5751 5753 5753 5752 5750 5748 5747 5745 5743 5741 5738 5735 5731 5729 5727 5725 5723 5720 5716 5713 5711 5709 5707 5706 5705 5704
5732 5744 5754 5759 5749 5748 5742 5721 5700 5698 5687 5694 5714 5710 5714 5737 5745 5748 5747 5747 5748 5748 5745 5742 5739 5738 5736 5734 5732 5729 5725 5723 5721 5720 5717 5714 5712 5709 5707 5704 5702 5700 5699 5698
5713 5716 5744 5753 5748 5738 5733 5723 5698 5688 5685 5692 5707 5705 5720 5740 5745 5747 5746 5745 5743 5741 5740 5738 5736 5734 5731 5728 5725 5723 5720 5717 5716 5714 5711 5709 5706 5703 5701 5699 5697 5695 5694 5693
5709 5714 5744 5752 5754 5745 5728 5717 5719 5696 5691 5687 5694 5707 5723 5736 5737 5738 5738 5737 5735 5734 5734 5733 5731 5729 5726 5723 5720 5719 5715 5712 5709 5708 5706 5703 5700 5698 5696 5694 5692 5690 5689 5689
5721 5715 5733 5744 5747 5741 5735 5720 5702 5691 5678 5678 5690 5698 5705 5722 5726 5729 5730 5729 5729 5728 5728 5727 5725 5722 5719 5717 5715 5713 5711 5707 5704 5701 5699 5696 5693 5692 5690 5688 5685 5684 5683 5682
5725 5711 5718 5728 5726 5724 5723 5715 5701 5688 5690 5679 5676 5691 5723 5724 5726 5725 5726 5725 5724 5723 5721 5720 5718 5716 5713 5711 5708 5706 5704 5701 5697 5694 5692 5689 5686 5685 5683 5681 5679 5678 5677 5676
5717 5703 5697 5713 5729 5733 5728 5717 5703 5694 5686 5683 5680 5693 5727 5726 5725 5724 5722 5721 5720 5718 5716 5713 5711 5708 5706 5703 5701 5699 5696 5693 5690 5688 5684 5681 5679 5678 5676 5674 5673 5672 5670 5669
5714 5698 5686 5694 5706 5718 5717 5714 5707 5696 5683 5675 5676 5694 5720 5721 5720 5719 5717 5716 5714 5712 5709 5706 5703 5700 5698 5696 5694 5692 5689 5687 5684 5681 5678 5675 5672 5670 5669 5667 5666 5665 5664 5662
5717 5694 5688 5685 5693 5704 5707 5709 5705 5698 5682 5678 5685 5697 5708 5711 5711 5711 5711 5709 5707 5705 5702 5699 5696 5693 5691 5689 5688 5686 5683 5680 5677 5674 5671 5668 5665 5664 5662 5660 5659 5657 5656 5655
5709 5692 5694 5697 5705 5706 5705 5705 5704 5701 5695 5690 5694 5696 5703 5707 5708 5708 5706 5703 5700 5697 5694 5692 5689 5686 5684 5682 5680 5678 5675 5673 5670 5666 5664 5661 5659 5657 5655 5653 5652 5650 5649 5648
5695 5689 5691 5691 5699 5700 5697 5700 5701 5700 5698 5695 5696 5695 5705 5706 5703 5700 5698 5696 5693 5691 5688 5686 5683 5680 5678 5676 5674 5671 5668 5665 5663 5660 5656 5654 5652 5650 5648 5646 5645 5643 5642 5641
5683 5681 5676 5674 5686 5691 5680 5690 5693 5694 5696 5695 5690 5696 5698 5696 5695 5694 5692 5689 5687 5684 5682 5679 5677 5674 5671 5669 5667 5664 5661 5659 5656 5653 5650 5647 5645 5643 5641 5640 5637 5636 5634 5633
5678 5671 5662 5663 5672 5664 5678 5695 5695 5691 5690 5692 5694 5694 5693 5692 5690 5688 5686 5684 5680 5678 5675 5672 5670 5667 5665 5663 5660 5658 5655 5652 5649 5646 5643 5640 5638 5635 5634 5632 5630 5629 5627 5626
5677 5668 5656 5650 5652 5659 5675 5688 5688 5684 5681 5687 5686 5687 5685 5684 5682 5678 5679 5678 5676 5673 5670 5667 5664 5661 5658 5656 5654 5650 5647 5644 5641 5638 5636 5634 5631 5629 5627 5625 5624 5622 5620 5620
5668 5665 5654 5646 5648 5648 5668 5686 5691 5684 5671 5683 5682 5680 5677 5676 5667 5667 5674 5673 5669 5666 5663 5660 5657 5654 5651 5648 5646 5643 5639 5636 5634 5632 5630 5628 5625 5623 5620 5619 5617 5615 5614 5613
5655 5651 5645 5642 5644 5651 5671 5680 5683 5664 5667 5680 5678 5676 5672 5669 5668 5668 5668 5665 5662 5659 5655 5653 5649 5646 5643 5641 5638 5635 5632 5630 5628 5626 5624 5622 5619 5617 5615 5613 5611 5609 5608 5607
5647 5642 5638 5635 5637 5646 5671 5672 5666 5666 5672 5673 5672 5670 5667 5664 5663 5661 5659 5656 5653 5650 5647 5644 5640 5637 5635 5633 5630 5628 5625 5623 5621 5619 5617 5615 5613 5611 5609 5606 5604 5603 5602 5600
5643 5645 5642 5642 5645 5656 5662 5665 5668 5667 5665 5666 5665 5663 5660 5656 5654 5652 5650 5647 5644 5642 5639 5636 5633 5630 5627 5625 5623 5620 5619 5617 5614 5612 5609 5607 5605 5603 5601 5599 5598 5596 5594 5593
5641 5641 5639 5640 5647 5653 5657 5660 5661 5662 5661 5661 5659 5657 5655 5650 5648 5645 5641 5638 5636 5634 5631 5628 5625 5622 5620 5618 5616 5614 5612 5610 5607 5604 5602 5600 5598 5596 5594 5593 5591 5589 5588 5586
5636 5635 5632 5633 5640 5646 5650 5651 5653 5654 5655 5653 5652 5650 5648 5644 5640 5637 5633 5631 5629 5627 5624 5621 5618 5615 5613 5611 5609 5607 5605 5603 5600 5597 5595 5593 5592 5590 5588 5586 5585 5584 5583 5581
5628 5629 5627 5629 5635 5635 5639 5645 5647 5646 5645 5644 5643 5640 5639 5637 5634 5630 5626 5624 5621 5619 5616 5613 5610 5608 5606 5604 5602 5600 5598 5595 5593 5590 5588 5587 5585 5583 5581 5580 5579 5578 5577 5576